#timestamp,LO_Frequency,Hit,StdDev 
1570021215.3,286046993.7,Y
1570021235.1,286046995.4,P
1570021255.9,286046997.0,N
1570021275.7,286046999.2,N
1570021295.5,286047002.2,N
1570021315.4,286047000.7,N
1570021335.2,286046999.0,N
1570021355.1,286046997.1,N
1570021356.0,286046997.1,N
1570021375.8,286046998.7,N
1570021395.6,286047000.9,N
1570021415.5,286046998.1,N
1570021435.3,286046998.8,N
1570021455.1,286047001.2,N
1570021475.9,286047002.0,N
1570021495.7,286047002.4,N
1570021515.6,286047000.3,N
1570021535.4,286047001.6,N
1570021555.2,286047001.7,N
1570021575.1,286046999.8,N
1570021576.0,286046999.8,N
1570021595.8,286047002.0,N
1570021615.7,286047003.3,N
1570021635.5,286047006.4,Y
1570021655.3,286047004.9,P
1570021675.2,286047007.5,N
1570021695.0,286047004.8,N
1570021695.9,286047004.8,N
1570021715.7,286047007.4,N
1570021735.6,286047010.2,Y
1570021755.4,286047005.1,P
1570021775.3,286047003.4,P
1570021795.1,286047004.5,P
1570021815.8,286047002.9,Y
1570021835.7,286046999.6,P
1570021855.5,286046998.7,N
1570021875.4,286047000.7,N
1570021895.2,286047001.0,N
1570021915.0,286046999.3,N
1570021915.9,286046999.3,N
1570021935.8,286046996.6,N
1570021955.6,286047000.4,N
1570021975.5,286047001.2,N
1570021995.3,286046999.1,N
1570022015.1,286046995.0,N
1570022035.9,286046999.1,N
1570022055.7,286046999.5,N
1570022075.5,286046998.8,N
1570022095.4,286046999.2,N
1570022115.2,286046998.8,N
1570022135.1,286046998.1,N
1570022136.0,286046998.1,N
1570022155.8,286047000.7,N
1570022175.6,286047001.1,N
1570022195.5,286046997.4,N
1570022215.3,286046995.1,N
1570022235.1,286046996.2,N
1570022255.9,286046995.1,N
1570022275.7,286046998.0,N
1570022295.6,286046996.2,N
1570022315.4,286046995.0,N
1570022335.2,286046997.5,N
1570022355.1,286046998.5,N
1570022356.0,286046998.5,N
1570022375.8,286046999.1,N
1570022395.7,286046998.4,N
1570022415.5,286046999.1,N
1570022435.3,286046996.4,N
1570022455.2,286046993.9,Y
1570022475.0,286046998.8,P
1570022475.9,286046998.8,P
1570022495.7,286047000.1,N
1570022515.6,286047002.1,N
1570022535.4,286046999.8,N
1570022555.3,286046996.5,N
1570022575.1,286046993.3,Y
1570022576.0,286046993.3,P
1570022595.8,286046993.5,N
1570022615.7,286046996.4,N
1570022635.5,286046997.1,N
1570022655.3,286046999.3,N
1570022675.2,286046999.1,N
1570022695.0,286046995.0,N
1570022695.9,286046995.0,N
1570022715.8,286046997.8,N
1570022735.6,286046997.2,N
1570022755.4,286046997.3,N
1570022775.3,286046996.1,N
1570022795.1,286046994.1,Y
1570022845.9,286046996.5,E
1570022855.8,286046998.2,N
1570022875.6,286047002.8,P
1570022895.5,286047002.8,N
1570022915.3,286047000.0,N
1570022935.2,286047002.6,N
1570022955.9,286047002.3,N
1570022975.7,286047001.3,N
1570022995.6,286047006.3,Y
1570023015.4,286047008.3,P
1570023035.2,286047006.6,N
1570023055.1,286047008.6,N
1570023056.0,286047008.6,N
1570023075.8,286047006.4,N
1570023095.7,286047006.4,N
1570023115.5,286047011.5,Y
1570023135.3,286047007.5,P
1570023155.2,286047001.3,N
1570023175.0,286047003.7,N
1570023175.9,286047003.7,N
1570023195.8,286047003.3,N
1570023215.6,286047004.8,N
1570023235.4,286047003.3,N
1570023255.3,286047002.6,N
1570023275.1,286047002.4,N
1570023276.0,286047002.4,N
1570023295.8,286047002.3,N
1570023315.7,286047005.8,Y
1570023335.5,286046997.3,P
1570023355.4,286046991.7,N
1570023375.2,286046991.2,N
1570023395.0,286046990.8,N
1570023395.9,286046990.8,N
1570023415.8,286046993.1,N
1570023435.6,286046992.8,N
1570023455.4,286046992.5,N
1570023475.3,286046994.8,N
1570023495.1,286046993.8,N
1570023515.9,286046997.7,N
1570023535.7,286046995.9,N
1570023555.5,286046998.0,N
1570023575.4,286046996.0,N
1570023595.2,286046995.7,N
1570023615.0,286046997.0,N
1570023615.9,286046997.0,N
1570023635.8,286046999.1,N
1570023655.6,286047000.9,N
1570023675.5,286047000.0,N
1570023695.3,286047000.2,N
1570023715.1,286046995.1,N
1570023735.9,286046994.2,N
1570023755.7,286046990.1,N
1570023775.5,286046992.1,N
1570023795.4,286046993.8,N
1570023815.2,286046996.4,N
1570023835.1,286046997.3,N
1570023836.0,286046997.3,N
1570023855.8,286046999.0,N
1570023875.6,286046999.5,N
1570023895.5,286046999.1,N
1570023915.3,286046998.3,N
1570023935.2,286046996.5,N
1570023955.9,286046996.9,N
1570023975.7,286046999.1,N
1570023995.6,286046999.2,N
1570024015.4,286046998.1,N
1570024035.2,286047002.1,N
1570024055.1,286047002.8,N
1570024056.0,286047002.8,N
1570024075.8,286047002.7,N
1570024095.7,286047003.4,N
1570024115.5,286047005.9,N
1570024135.3,286047003.5,N
1570024155.2,286047004.1,N
1570024175.0,286047007.1,N
1570024175.9,286047007.1,N
1570024195.8,286047005.5,N
1570024215.6,286047001.7,N
1570024235.4,286047005.3,N
1570024255.3,286047005.6,N
1570024275.1,286047005.1,N
1570024295.9,286047007.2,N
1570024315.7,286047007.0,N
1570024335.5,286047005.4,N
1570024355.4,286047004.7,N
1570024375.2,286047007.1,N
1570024395.0,286047011.8,Y
1570024395.9,286047011.8,P
1570024415.8,286047011.4,N
1570024435.6,286047013.1,P
1570024455.5,286047012.9,Y
1570024475.3,286047004.1,P
1570024495.1,286047000.0,N
1570024515.9,286046998.0,N
1570024535.7,286046996.3,N
1570024555.6,286046994.1,N
1570024575.4,286046989.0,N
1570024595.2,286046987.2,N
1570024615.1,286046988.2,N
1570024616.0,286046988.2,N
1570024635.8,286046988.3,N
1570024655.7,286046990.9,N
1570024675.5,286046995.9,N
1570024695.3,286046995.7,N
1570024715.2,286046995.8,N
1570024735.0,286046994.3,N
1570024735.9,286046994.3,N
1570024755.7,286046992.6,N
1570024775.6,286046993.6,N
1570024795.4,286046992.2,N
